Location: Aranbee
(34.0885°N, 118.2342°W)
Time: 09:28:42
(UTC+00:00)

Courier 1B Rocket - Pass Details

Date: 30 November 2020
Orbit: 920 x 1202 km, 28.2° (Epoch: 27 January)

Event Time Altitude Azimuth Distance (km) Brightness Sun altitude
Rises 19:16:53 0° 262° (W) 3,972 8.2 33.8°
Reaches altitude 10° 19:21:41 10° 236° (SW) 2,942 8.0 33.9°
Maximum altitude 19:24:31 13° 212° (SSW) 2,707 8.2 33.9°
Drops below altitude 10° 19:27:17 10° 188° (S) 2,853 8.8 34.0°
Sets 19:31:49 0° 161° (SSE) 3,732 9.0 34.0°
